Regional Weather Roundup
Issued by NWS Little Rock, AR

Home | Current Version | Previous Version | Graphics & Text | Print | Product List | Glossary On
Versions: 1 2 3 4 5 6 7 8 9 10 11 12 13 14 15 16 17 18 19 20 21 22 23 24 25 26 27 28 29 30 31 32 33 34 35 36 37 38 39 40 41 42
000
ASUS44 KLZK 241200
RWRLZK
ARKANSAS STATE WEATHER ROUNDUP
NATIONAL WEATHER SERVICE LITTLE ROCK AR
ISSUED BY NATIONAL WEATHER SERVICE MEMPHIS TN
600 AM CST FRI FEB 24 2017

NOTE: "FAIR" INDICATES FEW OR NO CLOUDS BELOW 12,000 FEET WITH NO
SIGNIFICANT WEATHER AND/OR OBSTRUCTIONS TO VISIBILITY.

ARZ001-003-010-029-241300-
NORTHWEST ARKANSAS

CITY           SKY/WX    TMP DP  RH WIND       PRES   REMARKS
FORT SMITH     MOCLDY    54  43  66 W20       29.61R
6HR MIN TEMP:  54; 6HR MAX TEMP:  73;

HARRISON       PTCLDY    61  53  75 CALM      29.54R
6HR MIN TEMP:  59; 6HR MAX TEMP:  67;

BENTONVILLE    CLOUDY    46  41  81 NW12      29.63R
6HR MIN TEMP:  46; 6HR MAX TEMP:  70;

SILOAM SPGS    CLOUDY    46  39  76 NW18      29.64R
6HR MIN TEMP:  46; 6HR MAX TEMP:  68;

HIGHFILL       CLOUDY    47  43  86 NW14      29.62R
6HR MIN TEMP:  47; 6HR MAX TEMP:  69; 6HR PCP: TRACE;

SPRINGDALE     CLOUDY    48  45  87 NW12G21   29.63
$$

ARZ004-005-016-241300-
NORTH CENTRAL ARKANSAS

CITY           SKY/WX    TMP DP  RH WIND       PRES   REMARKS
BATESVILLE     CLOUDY    61  50  67 E5        29.59R
6HR MIN TEMP:  61; 6HR MAX TEMP:  64;

FLIPPIN        PTCLDY    63  50  63 CALM      29.51R
6HR MIN TEMP:  63; 6HR MAX TEMP:  68;

MTN HOME       PTCLDY    60  53  77 SW8       29.52R
6HR MIN TEMP:  60; 6HR MAX TEMP:  67;

$$

ARZ040-041-241300-
WEST CENTRAL ARKANSAS

CITY           SKY/WX    TMP DP  RH WIND       PRES   REMARKS
MOUNT IDA      PTCLDY    62  52  69 VRB3      29.58R
6HR MIN TEMP:  61; 6HR MAX TEMP:  69;

$$

ARZ017-025-026-028-241300-
NORTHEAST ARKANSAS

CITY           SKY/WX    TMP DP  RH WIND       PRES   REMARKS
JONESBORO      PTCLDY    64  52  64 S23G39    29.58S
6HR MIN TEMP:  60; 6HR MAX TEMP:  64;

NEWPORT        PTCLDY    62  52  69 MISG      29.57S
6HR MIN TEMP:  58; 6HR MAX TEMP:  63;

WALNUT RIDGE   CLEAR     59  52  77 S16       29.57S
6HR MIN TEMP:  59; 6HR MAX TEMP:  64;

BLYTHEVILLE    CLEAR     63  56  78 S18G26    29.62S
6HR MIN TEMP:  63; 6HR MAX TEMP:  64;

$$

ARZ022-033-042-044-241300-
CENTRAL ARKANSAS

CITY           SKY/WX    TMP DP  RH WIND       PRES   REMARKS
LITTLE ROCK    PTCLDY    58  54  86 S13       29.62R
6HR MIN TEMP:  58; 6HR MAX TEMP:  63;

SEARCY         CLEAR     56  52  86 S8        29.64R
6HR MIN TEMP:  56; 6HR MAX TEMP:  65;

HOT SPRINGS    PTCLDY    61  56  83 SW10      29.62S
6HR MIN TEMP:  61; 6HR MAX TEMP:  67;

RUSSELLVILLE   CLEAR     62  52  69 S7        29.56R
6HR MIN TEMP:  59; 6HR MAX TEMP:  69;

$$

ARZ036-241300-
EAST ARKANSAS

CITY           SKY/WX    TMP DP  RH WIND       PRES   REMARKS
WEST MEMPHIS   CLEAR     60  57  89 S17       29.66R
6HR MIN TEMP:  58; 6HR MAX TEMP:  63;

$$

ARZ050-070-073-241300-
SOUTHWEST ARKANSAS

CITY           SKY/WX    TMP DP  RH WIND       PRES   REMARKS
TEXARKANA      PTCLDY    59  57  93 S16G25    29.62R
6HR MIN TEMP:  59; 6HR MAX TEMP:  65;

EL DORADO      CLOUDY    60  57  89 S7        29.69R
6HR MIN TEMP:  59; 6HR MAX TEMP:  66;

DEQUEEN        PTCLDY    50  50 100 E3        29.60R FOG
6HR MIN TEMP:  49; 6HR MAX TEMP:  65;

$$

ARZ056-057-069-241300-
SOUTHEAST ARKANSAS

CITY           SKY/WX    TMP DP  RH WIND       PRES   REMARKS
PINE BLUFF     PTCLDY    56  52  86 S10       29.66R
6HR MIN TEMP:  56; 6HR MAX TEMP:  64;

STUTTGART      CLEAR     59  46  63 S15       29.65S
6HR MIN TEMP:  59; 6HR MAX TEMP:  66;

MONTICELLO     PTCLDY    59  55  87 SW9       29.69R
6HR MIN TEMP:  59; 6HR MAX TEMP:  64;

$$





USA.gov is the U.S. government's official web portal to all federal, state and local government web resources and services.